Weather past 2 weeks in Saipan, Northern Mariana Islands

Now
77 °F

Passing clouds.


Feels Like: 78 °F
Forecast: 76 / 79 °F
Wind: 6 mph from North

Location: Saipan International Airport

Current Time: Jan 30, 2015 at 2:36:33 AM

Latest Report: Jan 30, 2015 at 1:54 AM


Visibility: 10 mi

Pressure: 29.91 "Hg

Humidity: 85%

Dew point: 72 °F

Location of SaipanLocation

Historic Weather in Saipan — Graph

°F

Saipan temperature yesterday

Maximum temperature yesterday: 93 °F (at 6:54 AM)
Minimum temperature yesterday: 75 °F (at 1:54 AM)
Average temperature yesterday: 79 °F

Past Weeks' High & Low Weather Summary

 TemperatureHumidityPressure
High99 °F (Jan 24, 12:17 PM)100% (Jan 18, 4:54 AM)30.08 "Hg (Jan 18, 4:54 AM)
Low74 °F (Jan 19, 12:54 AM)47% (Jan 24, 12:17 PM)29.85 "Hg (Jan 27, 1:01 PM)
Average82 °F81%29.97 "Hg
* Reported Jan 15 12:54 AM — Jan 30 12:54 AM, Saipan, Weather by CustomWeather, © 2014

Note: Actual official high and low records may vary slightly from our data, if they occured in-between our weather recording intervals... More about our weather records

Advertising

Saipan weather history for previous 24 hours

 ConditionsComfort  
Time TempWeatherWind HumidityBarometerVisibility
12:54 AM
Jan 30
75 °FClear.7 mph90%29.94 "Hg10 mi
11:54 PM
Jan 29
77 °FClear.6 mph88%29.95 "Hg10 mi
10:54 PM77 °FClear.6 mph85%29.96 "Hg10 mi
9:54 PM77 °FPassing clouds.5 mph85%29.96 "Hg10 mi
8:54 PM77 °FClear.6 mph88%29.95 "Hg10 mi
7:54 PM77 °FClear.7 mph88%29.94 "Hg10 mi
6:54 PM79 °FClear.6 mph82%29.93 "Hg10 mi
5:54 PM79 °FPassing clouds.6 mph80%29.91 "Hg10 mi
4:54 PM81 °FScattered clouds.5 mph78%29.90 "Hg10 mi
3:54 PM81 °FScattered clouds.10 mph80%29.89 "Hg10 mi
2:54 PM82 °FMore clouds than sun.7 mph76%29.88 "Hg10 mi
1:54 PM86 °FScattered clouds.7 mph61%29.90 "Hg10 mi
12:54 PM86 °FScattered clouds.7 mph67%29.91 "Hg10 mi
11:54 AM84 °FScattered clouds.7 mph70%29.93 "Hg10 mi
10:54 AM82 °FBroken clouds.6 mph76%29.96 "Hg10 mi
9:54 AM82 °FBroken clouds.5 mph76%29.98 "Hg10 mi
8:54 AM77 °FPassing clouds.6 mph90%29.98 "Hg10 mi
7:54 AM75 °FPartly sunny.5 mph96%29.96 "Hg10 mi
6:54 AM93 °FOvercast.6 mph54%29.93 "Hg10 mi
5:54 AM75 °FPassing clouds.6 mph96%29.92 "Hg10 mi
4:54 AM75 °FPassing clouds.10 mph93%29.90 "Hg10 mi
3:54 AM75 °FPassing clouds.No wind96%29.90 "Hg10 mi
2:54 AM77 °FClear.No wind88%29.90 "Hg10 mi
Weather by CustomWeather, © 2014

See weather overviewHow to use our weather pages